This demonstration page uses our WeatherBlox Daily Observations layout. Learn more.

Left ArrowRight Arrow

Hourly Observations for October 16, 2018

Temp ( °F °C ) Dew Point ( °F °C ) Humidity (%) Winds ( mph kmh ) Pressure ( in mb ) Visibility ( mi km ) Precip ( " mm )
12:54 am 00:54 Clear 35 1.7 27 -2.8 72 72 SSW 6 9 30.29 1026 10 16.0934 0 0
1:54 am 01:54 Clear 31 -0.6 26 -3.3 82 82 S 6 9 30.28 1025 10 16.0934 0 0
2:54 am 02:54 Clear 31 -0.6 26 -3.3 82 82 S 8 13 30.27 1025 10 16.0934 0 0
3:54 am 03:54 Clear 32 0 27 -2.8 82 82 SSE 6 9 30.25 1024 10 16.0934 0 0
4:54 am 04:54 Clear 34 1.1 26 -3.3 73 73 SSW 5 7 30.24 1024 10 16.0934 0 0
5:54 am 05:54 Clear 34 1.1 27 -2.8 76 76 SSW 5 7 30.24 1024 10 16.0934 0 0
6:54 am 06:54 Clear 30 -1.1 25 -3.9 82 82 SSW 3 6 30.25 1024 10 16.0934 0 0
7:54 am 07:54 Sunny 31 -0.6 26 -3.3 82 82 SSW 5 7 30.25 1024 10 16.0934 0 0
8:54 am 08:54 Sunny 37 2.8 30 -1.1 76 76 SSW 5 7 30.26 1025 10 16.0934 0 0
9:54 am 09:54 Sunny 45 7.2 32 0 61 61 W 7 11 30.26 1025 10 16.0934 0 0
10:54 am 10:54 Sunny 51 10.6 35 1.7 54 54 WSW 8 13 30.25 1025 10 16.0934 0 0
11:54 am 11:54 Sunny 56 13.3 38 3.3 51 51 SW 6 9 30.24 1024 10 16.0934 0 0
12:54 pm 12:54 Sunny 61 16.1 38 3.3 43 43 WSW 6 9 30.24 1024 10 16.0934 0 0
1:54 pm 13:54 Sunny 64 17.8 41 5 43 43 WSW 8 13 30.2 1023 10 16.0934 0 0
2:54 pm 14:54 Sunny 67 19.4 38 3.3 35 35 W 12 19 30.18 1022 10 16.0934 0 0
3:54 pm 15:54 Sunny 70 21.1 39 3.9 32 32 W 14 22 30.16 1021 10 16.0934 0 0
4:29 pm 16:29 Sunny 70 21.1 37 2.8 30 30 NW 13 20 30.12 1020 10 16.0934 0 0
4:54 pm 16:54 Sunny 70 21.1 38 3.3 31 31 NW 8 13 30.15 1021 10 16.0934 0 0
5:54 pm 17:54 Sunny 68 20 38 3.3 33 33 NW 10 17 30.16 1022 10 16.0934 0 0
6:54 pm 18:54 Clear 63 17.2 38 3.3 40 40 NNW 10 17 30.19 1022 10 16.0934 0 0
7:54 pm 19:54 Clear 54 12.2 38 3.3 55 55 NNW 8 13 30.23 1024 10 16.0934 0 0
8:54 pm 20:54 Clear 51 10.6 38 3.3 61 61 NW 3 6 30.25 1025 10 16.0934 0 0
9:54 pm 21:54 Clear 43 6.1 37 2.8 80 80 NNW 5 7 30.28 1026 10 16.0934 0 0
10:54 pm 22:54 Clear 42 5.6 36 2.2 79 79 Calm 30.31 1026 10 16.0934 0 0

Powered by AerisWeather